Regional Weather Roundup
Issued by NWS

Home | Current Version | Previous Version | Text Only | Print | Product List | Glossary Off
Versions: 1 2 3 4 5 6 7 8 9 10 11 12 13 14 15 16 17 18 19 20 21 22 23 24 25 26 27 28 29 30 31 32 33 34 35 36 37 38 39 40 41 42 43 44 45 46 47 48 49 50

777
ASUS45 KSLC 190510
RWRUT

UTAH REGIONAL WEATHER ROUNDUP
NATIONAL WEATHER SERVICE SALT LAKE CITY UT
1100 PM MDT WED OCT 18 2017

UTZ001>011-023>025-190600-

NORTHERN UTAH

CITY           SKY/WX    TMP DP  RH WIND       PRES   REMARKS
BRIGHAM CITY   CLEAR     42  31  65 CALM      30.08F
HILL AFB       CLEAR     53  20  27 E13       30.09F
LOGAN          CLEAR     41  24  51 CALM      30.09F
OGDEN          CLEAR     48  22  35 S9        30.07F
SALT LAKE CITY PTCLDY    52  33  48 SE7       30.07F
TOOELE VALLEY  PTCLDY    43  27  52 S7        30.08F
WENDOVER       PTCLDY    43  24  47 CALM      30.07F
WEST JORDAN    PTCLDY    48  25  40 SW6       30.09F

$$

UTZ011>015-024>027-190600-

CENTRAL/NORTHEAST UTAH

CITY           SKY/WX    TMP DP  RH WIND       PRES   REMARKS
PROVO AIRPORT  PTCLDY    44  33  65 CALM      30.10F
MOAB/CANYONLAN PTCLDY    49  15  25 SW3       30.08F
DELTA          MOCLDY    45  28  53 NE7       30.09F
PRICE          PTCLDY    47  11  23 N10       30.15F
RICHFIELD      CLEAR     45  27  49 CALM      30.15S
ROOSEVELT      CLOUDY    37  25  60 W5        30.15F WCI  34
VERNAL         CLOUDY    44  18  35 W5        30.13S

$$

UTZ013>016-019>022-027-190600-

SOUTHERN UTAH

CITY           SKY/WX    TMP DP  RH WIND       PRES   REMARKS
BRYCE CANYON   MOCLDY    43  23  45 SW3       30.25F
CEDAR CITY     MOCLDY    52  23  32 CALM      30.12F
MILFORD        PTCLDY    43  13  29 SW6       30.10F
ST GEORGE      PTCLDY    63  27  25 CALM      30.00S
HANKSVILLE     PTCLDY    45  18  33 CALM      30.12S
KANAB          PTCLDY    57  25  28 N2        30.14S
BLANDING         N/A     56  17  21 N7        30.23S

$$

REGIONAL REPORTS     COLORADO/ARIZONA

CITY           SKY/WX    TMP DP  RH WIND       PRES   REMARKS
CRAIG, CO      CLOUDY    32  20  61 SE3       30.20F
GRAND JUNCTION CLOUDY    52  18  26 S3        30.12S
RIFLE, CO      CLOUDY    45  18  34 SE6       30.18S
MONTROSE, CO   CLOUDY    43  21  41 SE10      30.20S
CORTEZ, CO     CLOUDY    45  26  47 E8        30.18S
COLORADO CITY  MOCLDY    59  25  27 CALM      30.12S
PAGE, AZ       MOCLDY    61  27  27 CALM      30.06S
GRAND CANYON   PTCLDY    47  26  44 CALM      30.21S
KINGMAN, AZ    MOCLDY    63  33  32 CALM      30.01S
FLAGSTAFF, AZ  MOCLDY    54  29  38 CALM      30.23F

$$

REGIONAL REPORTS    NEVADA/IDAHO/WYOMING

CITY           SKY/WX    TMP DP  RH WIND       PRES   REMARKS
LAS VEGAS, NV  CLOUDY    74  17  11 S5        29.93F
ELY, NY        MOCLDY    44   8  23 S14       30.15S
ELKO, NV       PTCLDY    41  18  39 NE3       30.07F
POCATELLO, ID  CLEAR     50  24  36 VRB3      30.04F
BURLEY, ID     CLEAR     51  21  30 S12       30.00F
FORT BRIDGER,    N/A     52   5  15 W5        30.23F
EVANSTON, WY   CLOUDY    40  13  33 SE7       30.21S
ROCK SPRINGS,  CLOUDY    44   9  23 S5        30.18F
KEMMERER, WY   CLOUDY    39  18  41 CALM      30.21F

$$




USA.gov is the U.S. government's official web portal to all federal, state and local government web resources and services.